Regional Weather Roundup
Issued by NWS

Home | Current Version | Previous Version | Text Only | Print | Product List | Glossary Off
Versions: 1 2 3 4 5 6 7 8 9 10 11 12 13 14 15 16 17 18 19 20 21 22 23 24 25 26 27 28 29 30 31 32 33 34 35 36 37 38 39 40 41 42 43 44 45 46 47 48 49 50

000
ASUS43 KIND 271309
RWRIN

WEATHER ROUNDUP FOR INDIANA
NATIONAL WEATHER SERVICE INDIANAPOLIS IN
800 AM EST TUE JAN 27 2015

NOTE: "FAIR" INDICATES FEW OR NO CLOUDS BELOW 12,000 FEET WITH NO
SIGNIFICANT WEATHER AND/OR OBSTRUCTIONS TO VISIBILITY.

* - STATION DOES NOT REPORT WEATHER SUCH AS PRECIPITATION OR FOG.

+ - STATION NOT QUALITY CONTROLLED BY THE NATIONAL WEATHER SERVICE.
    USE DATA WITH CAUTION...ESPECIALLY DEWPOINT AND RELATIVE
    HUMIDITY OBSERVATIONS.

INZ001>003-010>013-019-020-271400-
NORTHWEST INDIANA

CITY           SKY/WX    TMP DP  RH WIND       PRES   REMARKS
GARY /AIRPORT/ CLOUDY    27  21  80 CALM      30.06R
KNOX *+        CLOUDY    23   6  47 NE5       30.05R WCI  17
LA PORTE +     CLOUDY    25  18  76 NE5       30.06R WCI  19
MICHIGAN CITY+ CLOUDY    23  12  63 NE3       30.07R
MONTICELLO +   CLOUDY    23  20  86 NE5       30.03R WCI  17
RENSSELAER +   CLOUDY    27  25  93 NE8       30.05R WCI  18
VALPARAISO     CLOUDY    23  16  74 NE5       30.06R WCI  17

$$

LMZ046-743>745-271400-
SOUTHERN LAKE MICHIGAN

STATION/POSITION TIME  TEMP WIND        PRES
                       AIR  DIR/SP/G
                 (UTC) (F)  (DEG/KT/KT) (MB)
MICHIGAN CITY    1300   23   60/  6/  7   N/A

$$

INZ004-005-014>016-021>024-271400-
NORTH CENTRAL INDIANA

CITY           SKY/WX    TMP DP  RH WIND       PRES   REMARKS
ELKHART        PTCLDY    21   9  58 NE3       30.06R
GOSHEN         MOCLDY    20  12  71 NE5       30.05R WCI  13
LOGANSPORT +   CLOUDY    23  19  86 NE5       30.05R WCI  17
ROCHESTER +    CLOUDY    25  18  74 E5        30.05R WCI  19
SOUTH BEND     CLOUDY    22  11  62 NE6       30.06R WCI  14
WARSAW +       CLOUDY    21  14  73 NE5       30.04R WCI  15

$$

INZ006>009-017-018-025>027-271400-
NORTHEAST INDIANA

CITY           SKY/WX    TMP DP  RH WIND       PRES   REMARKS
ANGOLA *+      CLEAR     14  10  85 CALM      30.03R
AUBURN +       MOCLDY    16  10  79 CALM      30.05R
FORT WAYNE     CLOUDY    16  10  77 NE5       30.05R WCI   9
HUNTINGTON +   CLOUDY    18   9  68 CALM      30.05R

$$

INZ028-029-035-036-043>045-051>053-271400-
WEST CENTRAL INDIANA

CITY           SKY/WX    TMP DP  RH WIND       PRES   REMARKS
CRAWFORDSVL +  CLOUDY    27  23  86 NE6       30.01R FOG     WCI  20
GREENCASTLE +  CLOUDY    28  25  86 N3        30.01R FOG
LAFAYETTE      CLOUDY    24  23  96 NE7       30.03R FOG     WCI  16
TERRE HAUTE    CLOUDY    29  27  92 N5        30.02R FOG     WCI  24

$$

INZ030>032-037>040-046>048-054>057-064-065-271400-
CENTRAL INDIANA

CITY           SKY/WX    TMP DP  RH WIND       PRES   REMARKS
CP ATTERBURY + CLOUDY    28  23  80 NE3       30.02R
GREENWOOD *+   CLOUDY    27  19  74 NE5       30.01  WCI  21
INDIANAPOLIS   FLURRIES  24  22  91 NE5       30.00R WCI  18
-EAGLE CREEK   CLOUDY    25  22  88 NE5       30.00R WCI  19
KOKOMO *+      CLOUDY    21  14  73 E9        30.03R WCI  11
MARION +       CLOUDY    20  13  74 NE6       30.05R WCI  12
MT COMFORT *+  CLOUDY    25  16  68 NE3       30.01R
SHELBYVILLE    CLOUDY    25  19  78 NE6       30.01R WCI  18
ZIONSVILLE +   CLOUDY    25  20  82 NE5       30.01R WCI  19

$$

INZ033-034-041-042-049-050-058-059-271400-
EAST CENTRAL INDIANA

CITY           SKY/WX    TMP DP  RH WIND       PRES   REMARKS
MUNCIE         CLOUDY    19  12  74 E7        30.02R WCI  10

$$

INZ060-061-067>069-081>083-085>088-271400-
SOUTHWEST INDIANA

CITY           SKY/WX    TMP DP  RH WIND       PRES   REMARKS
EVANSVILLE     CLOUDY    33  30  88 CALM      30.02R FOG
HUNTINGBURG *+ CLOUDY    30  27  86 CALM      30.01R
WASHINGTON +   CLOUDY    30  26  88 N3        30.02R FOG

$$

INZ062-063-066-070>080-084-089>092-271400-
SOUTH CENTRAL AND SOUTHEAST INDIANA

CITY           SKY/WX    TMP DP  RH WIND       PRES   REMARKS
BLOOMINGTON    CLOUDY    28  26  92 N5        30.00R WCI  23
NORTH VERNON + CLOUDY    27  27 100 NE6       30.00  WCI  20

$$




USA.gov is the U.S. government's official web portal to all federal, state and local government web resources and services.